Vorticity
nan nan nan nan nan nan nan nan nan nan nan nan nan nan nan nan nan nan nan nan nan nan nan nan nan nan nan nan nan nan nan nan nan nan nan nan nan nan nan nan nan nan nan nan nan nan nan nan nan nan nan nan nan nan nan nan nan nan nan nan nan nan nan nan nan nan nan nan nan nan nan nan nan nan nan nan nan nan nan nan nan nan nan nan nan nan nan nan nan nan nan nan nan nan nan nan nan nan nan nan nan nan nan
nan 6 7 7 6 6 5 4 5 5 5 5 5 5 6 6 6 5 5 5 5 5 5 5 5 5 4 4 4 4 5 5 4 4 3 2 2 1 1 1 1 2 2 2 5 13 27 27 16 8 7 8 8 7 6 7 8 8 7 7 6 7 9 7 7 6 7 7 6 6 6 6 6 6 6 6 5 5 5 6 6 6 6 6 6 6 6 5 5 6 7 6 6 5 6 6 6 6 6 6 6 6 nan
nan 6 6 6 5 5 5 5 5 5 5 5 5 5 6 6 5 5 5 6 6 5 5 5 5 5 4 4 4 4 5 5 4 4 4 3 2 1 1 1 1 2 2 3 6 16 25 22 15 8 5 7 8 9 8 6 6 6 6 7 7 8 10 7 6 6 6 6 6 7 7 7 7 7 6 6 6 6 6 6 6 7 7 7 7 7 6 6 6 6 7 6 5 5 5 5 5 5 5 5 5 5 nan
nan 5 5 4 4 5 6 6 6 5 5 5 5 5 5 6 5 5 5 6 6 6 6 5 5 5 5 4 4 4 4 5 4 4 4 3 2 1 1 1 1 2 2 3 6 16 23 20 10 5 5 5 6 6 6 6 6 5 5 6 8 10 11 7 6 6 6 6 6 6 7 7 7 7 7 7 7 7 7 7 7 7 7 7 7 7 6 6 6 6 7 6 5 5 5 5 5 5 5 5 5 5 nan
nan 4 4 3 4 5 6 6 6 5 5 5 5 5 5 5 5 5 6 6 6 6 6 6 6 6 5 4 4 4 4 4 4 4 4 3 2 1 1 1 2 2 3 4 7 12 19 16 7 4 4 3 3 4 4 5 5 5 6 6 8 10 9 7 6 6 6 6 6 6 6 6 7 7 8 8 8 8 8 7 8 7 7 7 7 6 7 7 7 7 7 7 6 5 5 5 5 5 5 5 5 5 nan
nan 4 3 3 3 5 6 6 6 5 5 5 5 5 5 5 5 5 6 6 6 6 6 6 6 6 5 5 4 4 4 4 4 4 3 3 2 1 1 1 2 2 3 4 6 10 16 17 11 7 5 4 5 5 4 4 5 5 6 6 8 9 6 7 6 6 6 6 6 6 6 6 6 7 7 7 8 8 8 8 8 7 7 6 6 6 6 7 7 8 8 6 5 5 5 5 5 5 5 5 5 5 nan
nan 4 3 3 4 5 6 6 6 6 5 4 4 5 5 5 5 5 6 6 6 6 6 6 6 6 6 5 5 5 4 4 4 4 3 2 1 1 1 1 2 3 3 5 6 9 16 17 13 11 8 6 6 7 6 7 7 6 6 6 7 7 6 6 7 7 7 6 6 6 6 6 6 6 6 7 7 7 7 8 7 7 6 6 6 6 6 6 7 7 7 6 6 5 5 5 5 5 5 5 5 6 nan
nan 3 3 3 4 6 7 7 6 6 5 5 4 5 5 5 5 5 6 6 6 6 6 6 6 6 6 6 5 5 5 5 4 4 3 2 1 1 1 2 2 3 4 5 6 7 15 16 11 11 8 6 7 8 8 6 5 5 5 6 5 4 6 6 6 7 7 6 6 6 6 6 6 6 6 6 6 6 7 7 6 6 5 5 5 5 5 6 6 6 6 6 6 6 6 6 6 6 6 6 6 6 nan
nan 3 3 4 5 7 8 7 7 6 5 5 5 5 5 5 5 5 5 6 6 6 6 6 6 6 6 6 6 6 6 5 4 3 2 2 1 1 1 2 3 4 4 5 5 5 13 18 12 10 8 9 9 7 6 3 4 5 6 7 7 7 6 6 6 6 7 6 6 6 6 6 6 6 6 6 6 6 6 6 6 5 5 5 5 5 5 6 6 6 6 6 6 6 6 6 6 7 7 7 7 7 nan
nan 3 4 5 6 7 8 7 7 6 5 5 5 5 5 5 5 4 5 5 6 6 6 6 6 6 6 6 6 6 5 5 4 4 3 2 1 1 1 2 3 4 4 4 3 4 14 18 12 11 9 9 7 5 4 4 5 6 6 9 10 9 6 6 6 6 6 6 6 6 6 6 6 6 6 6 6 6 6 6 6 6 5 5 5 5 6 6 6 6 6 6 6 6 7 7 7 7 7 7 7 7 nan
nan 4 5 5 6 7 7 7 6 6 5 5 5 5 5 4 4 4 4 5 5 6 6 6 6 6 6 6 6 6 5 5 4 4 3 2 2 1 1 2 3 3 4 3 4 6 14 16 11 11 10 8 6 4 3 5 5 5 6 11 9 6 5 5 5 5 6 6 6 5 5 5 5 6 6 6 6 6 6 6 6 6 5 5 5 5 6 6 6 6 6 6 6 6 6 6 7 7 7 7 7 7 nan
nan 5 4 4 5 6 7 7 6 6 5 5 5 5 5 5 4 4 4 4 5 5 5 6 6 6 6 6 6 5 5 4 4 4 3 2 2 1 2 2 3 3 3 4 6 10 15 16 11 10 10 6 4 3 4 5 5 5 9 11 7 4 4 4 4 4 5 5 5 5 5 5 5 5 5 6 5 5 6 5 5 5 5 6 6 6 6 6 6 6 6 6 6 6 6 6 6 6 6 7 6 6 nan
nan 3 1 3 5 7 7 7 6 6 5 5 5 6 6 5 5 4 4 4 4 5 5 6 6 6 6 6 6 5 5 4 4 4 3 2 2 2 2 2 3 2 3 5 10 16 19 15 10 8 8 5 4 5 6 5 5 7 13 9 5 3 3 3 3 3 3 4 5 5 5 5 5 5 5 5 5 5 5 5 5 5 5 6 6 6 6 6 6 5 5 5 5 5 5 5 5 6 6 6 6 6 nan
nan 0 1 5 7 7 7 7 7 6 6 5 6 6 6 6 6 5 4 4 4 4 5 5 6 6 6 6 6 5 5 5 4 4 3 3 2 2 2 2 2 2 4 10 14 16 18 12 8 6 6 6 6 7 7 6 6 9 13 7 3 3 3 3 3 3 3 3 4 4 5 5 5 5 5 5 5 5 5 5 5 5 5 5 5 6 6 6 5 5 5 5 5 5 5 5 5 5 6 6 6 6 nan
nan 2 4 7 7 8 8 8 8 7 7 6 6 7 7 7 7 5 4 4 4 4 4 5 5 6 5 5 5 5 5 5 5 4 4 3 2 2 2 2 3 3 7 12 12 12 15 9 7 5 6 8 7 6 6 6 8 11 11 5 3 3 4 4 3 3 2 3 3 4 4 4 4 5 4 5 5 5 5 5 5 5 5 5 5 5 5 5 5 5 5 4 5 5 5 5 5 5 5 5 5 5 nan
nan 5 7 8 8 9 9 9 9 8 7 7 7 7 8 8 7 6 5 4 4 4 4 5 5 5 5 5 4 3 2 4 4 4 4 3 3 3 3 3 4 6 9 10 11 10 12 7 6 7 8 9 7 6 6 8 12 14 8 3 3 4 4 4 3 3 2 3 3 4 4 4 4 4 4 4 4 4 4 5 5 5 5 4 4 5 4 4 5 5 4 4 4 4 4 5 5 5 5 5 5 5 nan
nan 7 9 9 9 9 9 9 9 8 8 8 8 9 9 8 7 7 6 6 5 5 5 5 4 4 4 3 1 -2 -1 3 3 4 5 4 4 4 3 4 5 7 9 9 10 11 8 6 6 8 9 8 7 6 6 10 14 15 7 3 3 4 4 3 3 3 2 5 5 5 4 4 4 4 4 4 4 4 4 4 4 4 4 4 4 4 4 4 4 4 4 4 4 4 4 4 4 4 5 5 5 5 nan
nan 8 9 9 10 9 9 9 9 8 8 9 9 10 9 9 8 7 7 7 6 6 5 5 5 4 3 0 -3 -4 0 3 3 4 5 6 6 6 5 5 6 7 7 9 10 11 6 6 7 8 8 7 6 6 6 10 13 14 9 6 5 5 4 4 3 2 3 8 8 6 4 3 3 4 4 4 4 4 4 4 4 4 4 4 4 4 4 4 4 4 4 4 4 4 4 4 4 4 4 4 4 4 nan
nan 8 9 9 9 8 8 8 8 8 8 9 9 10 10 9 8 7 8 8 8 7 6 6 5 4 2 -3 -5 -3 3 5 5 5 6 8 8 7 7 7 8 8 7 9 10 10 7 7 7 8 8 7 6 6 5 8 9 10 9 9 8 7 6 5 4 3 7 10 9 7 4 3 3 3 4 4 4 3 3 4 4 4 4 4 4 4 4 4 4 4 4 4 4 4 4 4 4 4 4 4 4 4 nan
nan 3 4 5 6 6 6 6 6 6 6 7 6 6 6 5 6 7 8 8 8 8 8 6 4 2 -1 -5 -4 -0 5 6 5 6 7 8 8 7 7 7 8 8 9 10 9 7 7 7 7 8 8 7 6 6 5 7 6 5 6 9 9 9 8 7 7 6 9 9 8 6 5 4 3 3 3 3 3 3 3 3 3 3 3 4 4 4 4 4 4 4 4 4 4 4 4 3 3 3 3 3 4 4 nan
nan -0 -0 1 1 1 1 1 1 2 3 3 0 0 1 1 3 4 6 6 7 8 7 3 -0 0 -1 -1 0 2 5 6 6 6 7 7 7 6 6 6 7 8 10 9 8 7 7 7 7 8 7 6 6 5 6 7 5 3 3 6 7 9 10 10 9 9 9 8 7 7 7 5 4 3 2 3 3 3 3 3 3 3 3 3 3 3 4 3 4 4 4 4 4 4 4 3 3 3 3 3 3 3 nan
nan 2 1 0 -1 -2 -2 -1 -0 1 2 0 -3 -2 0 1 2 3 2 3 5 6 4 0 -0 2 4 5 4 4 6 7 7 6 6 7 6 6 6 6 7 8 9 8 8 7 7 7 7 8 8 8 7 6 7 7 6 3 2 3 4 6 9 11 12 11 10 9 8 8 8 6 3 2 2 3 3 4 4 3 3 3 3 3 3 3 3 3 3 4 4 4 4 4 4 4 3 3 3 3 3 3 nan
nan 5 4 2 2 1 2 2 3 3 4 0 -2 1 3 3 4 3 2 3 5 5 3 1 3 5 6 6 6 6 8 10 8 7 7 7 7 7 6 7 7 8 8 8 8 7 7 7 7 8 10 10 8 7 8 7 5 4 2 2 3 4 6 9 11 11 10 10 10 9 9 7 4 3 3 4 3 4 4 3 3 3 3 3 3 3 3 3 3 3 4 4 4 4 4 4 3 3 3 3 3 3 nan
nan 5 4 4 4 5 5 5 5 5 5 2 1 3 5 6 6 5 3 5 6 6 5 3 4 5 7 7 7 7 9 10 8 7 7 7 8 8 7 7 7 7 8 8 8 7 6 7 7 8 11 11 9 8 9 7 5 4 3 2 3 3 4 6 8 9 9 10 10 11 10 8 6 4 4 4 4 4 5 4 3 3 3 3 3 3 3 3 3 3 3 3 3 3 3 3 3 3 3 3 2 3 nan
nan 6 5 5 5 6 6 6 6 6 6 3 3 5 8 7 6 5 4 6 7 7 6 5 5 6 7 7 7 8 9 9 8 7 7 8 8 8 8 8 7 7 8 8 7 7 6 6 7 8 10 10 8 8 9 9 6 4 3 3 3 3 4 4 5 6 7 9 9 10 10 9 7 6 5 4 5 5 5 5 5 5 4 3 3 3 3 3 3 3 2 3 3 3 3 3 3 3 3 2 2 2 nan
nan 6 6 6 6 6 6 6 6 6 6 4 4 7 9 7 6 5 5 6 7 7 7 6 6 7 8 8 8 8 8 8 8 7 7 8 8 7 8 8 7 7 8 8 7 7 7 6 6 7 8 9 8 8 9 10 7 5 4 4 3 3 3 4 4 4 5 7 9 10 10 9 8 7 6 6 6 5 4 6 6 7 6 5 4 3 4 3 3 3 3 4 3 3 2 3 3 3 3 2 2 2 nan
nan 7 7 6 6 6 6 6 6 7 6 5 5 7 8 7 6 6 6 7 7 8 8 8 8 8 8 9 9 8 7 7 8 8 8 8 8 8 8 7 7 7 7 7 7 7 7 7 6 7 8 9 8 7 9 10 7 5 5 5 4 4 4 4 3 3 4 6 8 10 10 9 8 8 7 7 7 5 4 6 7 7 7 6 5 5 4 4 4 4 5 5 3 2 2 3 3 4 4 3 3 2 nan
nan 7 7 6 6 6 6 7 7 7 7 6 5 6 8 8 6 6 7 7 8 8 8 9 9 9 8 8 9 8 7 7 7 8 8 7 7 8 8 7 7 7 7 7 7 7 7 7 7 7 8 9 8 7 10 10 9 7 5 5 5 5 4 4 4 4 4 6 8 9 10 9 8 7 6 7 7 7 5 5 6 6 7 7 7 6 4 4 4 5 7 7 4 3 2 3 4 4 5 5 4 4 nan
nan 7 7 7 7 7 7 7 8 8 8 7 5 6 7 9 7 7 7 8 8 8 8 9 9 9 8 8 8 8 7 7 7 7 7 7 7 8 8 8 7 7 7 7 7 6 7 7 8 8 9 9 8 7 9 10 11 8 6 5 5 5 5 4 4 4 4 5 6 8 9 9 8 7 6 7 7 8 6 5 5 5 6 7 8 7 6 5 5 6 9 10 6 3 1 3 4 5 6 7 7 7 nan
nan 7 8 9 8 7 7 8 8 8 8 7 7 7 6 8 9 8 8 8 8 7 8 9 9 8 8 7 7 7 7 7 8 7 7 6 6 7 7 8 8 7 7 7 7 8 8 8 8 8 8 8 7 7 8 10 12 10 7 5 5 5 6 5 5 5 5 5 5 6 7 8 8 7 6 6 6 7 6 6 5 5 6 7 8 8 9 8 8 9 11 10 6 3 2 2 3 4 5 7 9 9 nan
nan 8 9 9 8 7 7 8 9 9 8 7 7 7 7 8 9 9 8 8 8 7 7 8 8 8 8 7 7 7 8 8 8 8 8 7 6 6 6 7 8 7 7 7 7 8 9 9 8 7 8 8 8 8 7 9 12 13 9 5 5 5 6 6 5 5 5 4 4 5 6 7 8 8 7 6 5 5 6 6 6 6 6 6 7 10 14 15 13 11 12 10 6 4 3 3 4 4 4 4 7 9 nan
nan 8 9 9 8 8 8 8 8 9 8 7 8 8 7 7 9 9 8 7 7 7 7 8 8 8 8 7 7 7 9 8 7 8 8 8 7 7 6 7 7 7 7 7 7 7 8 8 8 8 8 9 8 7 7 8 10 13 12 8 5 5 5 5 6 5 5 5 4 4 5 6 7 8 7 6 6 5 5 5 5 5 6 6 7 9 15 18 16 14 12 10 6 4 4 5 5 5 4 4 6 7 nan
nan 8 8 9 8 8 7 7 7 8 8 8 8 8 7 7 8 9 8 8 8 7 7 7 8 8 8 7 7 8 9 8 7 7 8 8 9 8 8 7 7 7 8 8 7 7 7 8 8 8 8 8 8 8 8 8 9 10 12 11 8 6 5 5 5 5 5 5 5 4 5 5 6 7 7 7 6 6 5 5 5 5 6 6 6 7 12 16 15 13 12 9 7 5 5 6 7 7 5 4 5 6 nan
nan 7 7 8 8 8 7 7 7 8 8 8 8 9 8 7 8 8 8 8 8 7 7 7 7 8 8 8 7 8 8 8 8 7 7 8 9 10 10 8 7 7 8 8 8 7 7 7 7 7 8 8 8 8 7 7 8 7 10 13 12 9 7 5 5 5 6 6 6 5 5 5 5 6 6 6 6 6 6 5 5 5 5 5 6 7 9 11 11 11 11 11 11 8 7 7 7 7 6 5 6 7 nan
nan 7 7 7 7 8 7 7 7 8 8 8 8 9 9 7 7 7 7 7 8 7 7 7 7 7 7 8 8 8 7 8 8 7 7 7 8 10 10 8 7 8 8 8 7 7 8 7 7 7 8 8 7 7 7 8 8 7 10 13 12 12 10 6 4 4 5 6 6 6 5 5 5 5 5 6 6 6 6 6 6 5 5 5 5 7 8 8 8 8 9 11 12 11 9 8 8 7 7 7 8 9 nan
nan 7 7 7 7 8 7 7 7 8 9 8 8 9 9 6 6 6 7 7 7 7 7 7 8 7 7 7 8 8 7 7 7 7 7 7 8 10 10 9 8 8 8 7 8 9 9 8 7 8 8 8 7 7 7 9 10 9 9 10 10 10 10 9 7 7 6 5 6 6 6 6 5 5 5 5 5 6 6 6 6 6 5 5 5 6 7 7 7 7 7 9 9 9 9 8 8 8 9 10 10 9 nan
nan 8 7 7 7 7 7 7 8 9 9 7 7 8 7 7 7 7 8 8 7 7 7 8 9 8 7 7 8 8 7 7 7 7 7 7 8 9 9 10 9 8 7 7 8 9 9 9 8 7 7 8 8 7 8 9 10 9 7 8 8 8 8 10 12 12 10 7 6 6 6 6 6 6 5 5 6 6 6 7 7 6 5 5 5 5 7 7 7 7 6 7 7 7 8 8 9 11 12 11 9 7 nan
nan 8 8 7 7 7 7 7 8 9 8 7 6 7 7 7 8 8 8 8 7 6 8 8 8 8 8 8 8 8 8 7 7 7 7 7 7 7 8 9 9 9 8 7 8 9 9 9 8 8 8 8 8 7 8 9 10 7 7 7 7 7 7 9 10 12 14 13 9 6 5 6 7 7 6 6 6 6 6 7 7 7 6 5 5 5 6 7 7 7 7 6 7 6 7 8 10 11 11 9 7 5 nan
nan 8 8 8 7 7 6 8 9 8 7 7 7 7 7 8 8 8 8 8 7 7 7 7 7 7 7 7 7 8 8 7 7 7 7 7 7 7 7 8 9 9 8 8 8 8 8 8 9 9 9 8 8 7 8 9 9 7 7 7 7 7 7 8 8 8 11 15 14 12 7 5 6 7 7 7 6 6 6 7 8 8 7 6 5 5 5 6 7 7 7 7 7 6 7 8 9 10 9 6 5 4 nan
nan 8 8 8 8 7 8 9 8 6 6 8 7 8 7 8 8 7 8 8 7 7 7 8 7 7 6 7 7 7 8 8 8 8 8 7 7 7 7 7 7 8 8 9 9 8 7 8 9 9 8 8 8 8 9 9 8 7 6 7 8 7 7 8 8 7 7 11 14 17 13 7 6 7 8 7 7 6 6 7 7 8 8 7 6 5 5 5 6 7 7 7 7 7 7 8 9 8 6 4 4 4 nan
nan 7 8 8 8 9 10 10 7 5 6 8 8 8 7 7 8 8 8 7 6 7 8 8 7 8 7 7 7 7 7 8 9 9 8 8 7 7 8 8 7 7 8 8 8 8 8 8 8 8 8 8 8 8 9 9 8 6 6 8 9 9 9 9 9 7 6 8 10 14 18 13 8 6 7 7 7 7 6 6 7 8 10 9 7 6 5 5 5 6 7 8 8 8 7 8 8 7 5 4 4 4 nan
nan 7 7 8 8 10 11 9 6 5 7 8 8 8 7 7 8 8 8 7 7 7 8 8 7 8 8 8 8 7 8 7 8 9 9 8 7 8 9 8 7 7 7 7 7 8 8 8 8 8 9 9 9 9 8 9 8 6 7 9 10 11 11 9 8 7 7 8 8 10 18 19 12 8 7 7 7 7 6 6 7 8 11 11 9 7 5 5 5 6 7 8 8 8 8 7 7 6 5 5 5 4 nan
nan 7 7 7 8 10 11 9 7 6 6 8 8 8 8 8 8 8 8 8 8 7 7 8 7 7 9 9 9 8 8 7 7 8 8 8 8 8 9 9 8 7 7 7 7 7 8 8 8 8 9 10 10 9 8 8 8 7 7 8 9 11 11 9 7 8 9 9 9 9 13 19 17 11 8 8 7 7 7 7 7 8 11 11 10 7 5 5 6 6 7 8 9 9 8 7 7 6 5 5 5 5 nan
nan 8 7 8 8 10 10 9 7 6 7 8 9 8 8 8 8 8 7 8 8 8 8 8 8 7 8 10 10 8 7 8 8 8 7 7 7 8 9 9 9 8 7 7 7 7 8 8 8 8 9 10 10 10 9 8 8 7 7 8 9 11 11 8 7 7 8 10 10 11 11 14 16 15 11 9 8 8 7 8 8 9 11 11 9 7 5 5 6 7 8 8 9 9 8 7 6 6 6 5 5 5 nan
nan 8 7 8 9 10 9 8 7 7 7 9 9 8 8 8 8 7 6 7 8 8 8 8 8 7 7 9 10 10 9 8 9 9 8 7 7 7 7 9 10 9 8 6 7 7 8 8 8 8 8 8 9 9 10 9 8 8 9 10 10 11 11 9 7 6 6 8 10 13 12 10 11 12 13 11 10 10 10 10 10 10 11 11 9 7 5 6 7 7 8 9 9 9 8 7 7 6 6 6 6 6 nan
nan 8 8 9 9 10 9 7 6 7 8 8 9 8 8 7 8 7 7 6 7 8 9 9 8 6 6 8 9 10 10 9 9 10 9 8 8 8 7 8 10 11 9 7 7 8 8 8 8 8 8 7 7 7 9 9 8 9 10 10 10 10 11 10 8 6 5 6 9 13 13 9 8 8 9 10 10 11 13 13 12 11 10 10 9 7 7 8 8 9 8 8 9 9 8 7 7 7 7 6 6 6 nan
nan 8 9 9 9 9 8 7 6 7 9 8 8 8 7 7 8 8 8 7 7 8 9 10 8 6 6 6 7 9 10 9 10 10 10 10 10 10 9 8 9 10 10 9 9 8 8 8 8 8 8 7 7 6 7 8 8 8 8 9 10 10 11 10 8 7 6 6 8 10 11 10 7 5 6 8 9 11 13 15 14 12 10 9 8 8 9 10 11 11 9 9 8 8 7 7 7 7 7 7 6 6 nan
nan 7 9 10 9 8 8 7 6 8 8 8 8 8 8 8 8 8 8 8 7 7 8 10 9 7 6 6 6 6 8 9 10 10 10 10 10 10 10 9 8 9 9 10 10 10 9 8 8 7 7 7 7 7 7 8 8 8 7 8 8 9 10 10 8 6 6 8 8 8 8 9 7 5 6 8 9 10 11 13 14 13 11 10 10 11 11 12 12 12 11 9 8 8 7 7 7 7 7 7 6 5 nan
nan 6 9 10 9 7 8 8 7 7 7 7 8 9 10 10 9 8 8 8 7 6 7 9 10 9 7 6 6 6 6 7 8 9 9 8 8 7 8 8 8 8 8 9 10 11 9 8 8 7 7 7 7 7 7 8 8 8 7 7 7 8 9 9 8 7 8 9 9 8 7 7 6 6 8 9 10 10 10 10 11 12 12 12 12 13 13 13 14 14 13 10 8 7 7 7 7 7 7 6 5 5 nan
nan 7 8 9 9 8 9 9 6 6 7 7 8 10 11 11 10 9 8 6 5 5 5 7 9 10 9 7 7 8 7 6 6 6 6 8 8 7 7 8 8 8 8 8 9 9 9 8 8 7 7 7 7 8 8 8 8 8 7 7 7 7 8 9 9 9 10 9 9 9 8 7 6 7 9 11 11 11 10 9 9 9 10 10 10 10 12 13 13 14 14 13 10 9 8 7 7 7 7 6 5 5 nan
nan 8 8 8 9 10 11 10 6 6 7 8 8 9 10 10 9 8 8 6 4 3 4 6 7 9 9 9 9 11 10 8 6 4 5 8 8 8 8 8 8 8 8 8 7 8 9 9 8 8 7 6 7 8 9 8 8 7 7 7 7 7 8 9 10 11 10 9 9 9 9 7 6 7 9 11 12 12 11 9 8 8 7 6 6 7 8 11 15 16 16 14 13 12 11 9 8 7 6 6 5 5 nan
nan 8 9 8 9 10 12 11 8 7 6 7 8 8 10 9 6 5 8 9 6 4 2 4 6 8 8 9 10 13 12 10 8 6 7 8 7 7 8 8 8 9 10 9 7 7 8 9 9 9 8 7 7 8 8 8 8 7 7 7 8 8 8 9 10 10 9 9 9 10 9 8 7 8 10 10 11 11 12 10 8 7 6 6 6 6 6 9 14 18 17 14 13 12 12 12 10 8 6 6 5 5 nan
nan 7 8 8 9 9 10 11 9 7 6 7 7 7 9 9 7 6 7 8 8 7 5 5 5 6 7 8 8 10 12 12 9 7 6 8 7 6 7 8 8 9 10 10 9 9 8 9 8 9 11 10 9 9 8 7 7 7 8 8 7 7 9 9 9 9 9 9 9 9 9 8 8 9 10 10 9 11 12 11 8 7 7 7 6 5 6 8 12 13 13 12 11 10 12 13 11 9 7 6 5 5 nan
nan 8 7 6 7 7 9 11 9 8 6 6 7 8 10 9 7 7 6 6 7 7 8 7 5 6 7 6 6 6 9 11 9 7 6 7 7 7 7 8 8 8 8 8 8 10 12 11 9 9 10 12 11 10 8 7 6 7 8 8 7 8 9 9 8 8 8 9 9 9 8 8 8 9 9 9 9 10 11 12 11 10 10 9 7 7 8 9 8 6 5 7 9 10 12 12 11 9 7 6 6 6 nan
nan 7 5 5 5 7 9 9 8 7 6 6 7 9 11 10 8 7 8 7 7 7 6 7 7 5 5 7 6 5 7 8 8 7 7 6 6 6 7 8 8 7 7 8 8 9 13 15 12 9 10 12 11 10 8 8 7 7 8 9 8 8 8 8 8 8 7 8 10 10 9 8 8 8 7 8 8 9 10 12 13 13 13 11 10 9 10 8 4 2 3 5 7 9 11 11 9 8 7 7 7 6 nan
nan 6 5 6 5 5 7 8 7 7 7 6 7 8 9 10 10 9 9 10 9 7 4 6 8 5 4 8 9 6 6 7 8 8 8 6 5 4 5 6 7 7 8 9 9 10 11 13 11 10 11 13 12 9 9 11 10 9 9 8 8 8 7 7 7 7 7 8 10 10 9 9 8 7 6 7 8 9 10 10 11 12 12 10 9 9 8 6 4 3 4 5 5 7 10 10 8 7 6 6 6 6 nan
nan 7 6 6 5 4 5 7 8 7 6 7 7 7 8 9 10 10 10 10 9 7 4 7 9 8 4 6 9 8 6 8 9 9 9 8 6 3 1 2 3 5 6 9 9 9 10 12 11 8 10 11 11 8 11 12 11 10 9 8 9 9 7 6 7 7 8 9 9 8 8 9 9 7 7 7 8 8 8 9 10 11 11 10 8 7 8 7 5 5 5 6 6 8 10 10 8 7 6 6 6 5 nan
nan 9 8 6 5 3 3 5 7 7 8 8 8 7 7 8 9 9 10 10 9 10 7 4 7 9 7 5 6 8 8 8 7 9 9 10 10 8 3 0 0 1 2 6 8 8 9 9 11 10 11 9 7 6 11 13 11 10 9 8 9 11 10 8 6 7 9 8 7 7 8 8 8 8 8 8 8 8 7 8 9 10 10 9 8 8 10 10 8 7 8 9 9 10 11 10 7 6 6 6 5 4 nan
nan 7 8 7 7 5 3 4 6 6 8 9 8 8 8 8 8 8 9 10 10 10 7 5 6 7 9 7 5 7 10 7 5 7 8 9 11 12 9 5 3 2 1 2 5 7 8 6 8 10 11 9 6 3 7 12 11 10 9 9 10 12 12 9 7 7 8 8 7 7 7 7 8 9 9 8 8 8 7 7 7 8 8 8 9 11 13 12 11 12 13 12 11 11 10 9 7 6 6 5 5 4 nan
nan 5 8 9 8 6 5 5 5 6 8 10 10 9 9 8 7 7 8 11 11 10 8 7 6 6 9 9 6 6 8 7 6 7 7 8 11 13 12 9 9 8 6 3 3 5 6 5 6 9 10 11 10 8 6 7 9 11 10 10 9 10 10 9 9 8 8 8 7 7 7 6 7 8 9 9 8 8 7 7 7 7 7 9 10 12 11 11 12 14 13 11 11 10 9 8 7 7 6 5 4 4 nan
nan nan nan nan nan nan nan nan nan nan nan nan nan nan nan nan nan nan nan nan nan nan nan nan nan nan nan nan nan nan nan nan nan nan nan nan nan nan nan nan nan nan nan nan nan nan nan nan nan nan nan nan nan nan nan nan nan nan nan nan nan nan nan nan nan nan nan nan nan nan nan nan nan nan nan nan nan nan nan nan nan nan nan nan nan nan nan nan nan nan nan nan nan nan nan nan nan nan nan nan nan nan nan
CAPE
1545 1278 1126 940 775 775 611 696 700 700 612 573 538 538 473 343 343 257 186 169 169 176 184 170 98 98 85 142 231 231 226 149 52 52 26 19 19 12 6 3 3 4 7 9 5 5 17 nan nan nan nan nan nan nan nan nan nan nan nan nan nan nan nan 18 21 21 17 18 16 16 16 15 16 16 17 18 18 18 19 20 20 20 19 12 3 3 nan nan 16 16 39 40 28 28 26 24 24 25 25 27 27 29 28
1455 1197 995 862 704 704 624 670 673 673 547 511 515 515 451 325 325 218 152 138 138 168 177 142 109 109 78 152 215 215 187 137 55 55 26 18 18 12 5 3 3 4 6 6 1 1 9 nan nan nan nan nan nan nan nan nan nan nan nan nan nan nan nan 19 19 19 21 18 16 16 13 11 11 11 11 12 12 12 11 11 11 10 8 4 nan nan nan nan 21 21 41 41 30 30 28 30 30 29 30 32 32 34 34
1376 1118 964 835 721 721 638 603 563 563 522 488 493 493 395 309 309 207 166 174 174 207 191 174 118 118 87 161 201 201 173 125 59 59 31 17 17 10 3 3 3 3 4 3 0 0 17 0 nan nan nan nan nan nan nan nan nan nan nan nan nan nan 3 20 19 19 24 21 18 18 13 11 8 8 7 8 8 7 6 5 5 3 2 nan nan nan nan 3 29 29 47 43 33 33 32 34 34 30 31 32 32 34 35
1299 1042 894 769 740 740 658 581 537 537 499 465 470 470 408 295 295 198 180 188 188 220 226 185 149 149 131 169 167 167 161 97 51 51 27 14 14 6 1 0 0 2 2 1 0 0 nan nan nan nan nan nan nan nan nan nan nan nan nan nan nan nan 18 23 21 21 22 24 21 21 19 13 8 8 6 3 3 2 2 2 2 0 nan nan nan nan nan 20 45 45 58 43 34 34 34 33 33 29 26 26 26 26 28
1221 972 834 709 675 675 637 518 514 514 477 478 447 447 388 280 280 212 195 224 224 208 214 196 178 178 180 177 153 153 128 68 35 35 20 10 10 3 0 0 0 1 0 0 nan nan nan nan nan nan nan nan nan nan nan nan nan nan nan nan nan 2 26 26 24 24 21 22 24 24 23 20 13 13 8 4 4 4 2 1 1 0 nan nan 3 3 24 44 71 71 66 41 35 35 33 30 30 26 22 20 20 20 20
1094 903 768 691 651 651 573 496 458 458 457 456 426 426 340 294 294 251 208 212 212 218 202 205 209 209 187 185 139 139 96 59 30 30 15 8 8 1 0 0 0 0 0 nan nan nan nan nan nan nan nan nan nan nan nan nan nan nan nan nan nan 8 28 28 27 27 24 23 24 24 25 22 19 19 15 10 10 9 6 3 3 0 0 3 26 26 48 71 71 71 59 36 32 32 29 26 26 21 17 15 15 14 15
1064 878 745 667 586 586 511 475 440 440 439 438 410 410 328 284 284 240 221 225 225 183 191 195 197 197 197 171 125 125 84 51 25 25 14 6 6 0 0 nan nan nan nan nan nan nan nan nan nan nan nan nan nan nan nan nan nan nan nan nan nan 17 24 28 27 27 27 25 23 23 23 22 20 20 19 17 17 17 14 8 8 2 3 17 41 41 54 59 51 51 40 31 27 27 26 22 22 17 13 9 9 8 10
986 807 726 603 525 525 491 456 423 423 421 455 429 429 348 275 275 255 259 216 216 197 180 206 207 207 206 158 95 95 60 45 20 20 10 2 2 nan nan nan nan nan nan nan nan nan nan nan nan nan nan nan nan nan nan nan nan nan nan nan nan 16 23 26 29 29 30 27 25 25 23 23 21 21 20 20 20 21 19 11 11 6 9 21 38 38 42 36 31 31 25 21 21 21 20 16 16 12 8 6 6 5 9
908 779 660 581 505 505 472 438 407 407 405 439 416 416 367 291 291 295 248 205 205 188 170 195 218 218 192 144 83 83 51 29 16 16 7 nan nan nan nan nan nan nan nan nan nan nan nan nan nan nan nan nan nan nan nan nan nan nan nan nan nan 8 22 23 27 27 30 28 27 27 24 23 22 22 19 20 20 22 21 16 16 9 11 19 27 27 23 20 15 15 13 13 13 13 13 10 10 8 6 4 4 4 8
829 708 597 523 485 485 452 422 359 359 387 391 402 402 385 362 362 309 237 194 194 198 179 183 182 182 178 129 87 87 55 24 11 11 3 nan nan nan nan nan nan nan nan nan nan nan nan nan nan nan nan nan nan nan nan nan nan nan nan 0 0 13 19 20 24 24 27 27 27 27 25 24 20 20 19 19 19 21 22 20 20 14 14 17 17 17 15 10 6 6 5 6 7 7 8 8 8 8 5 6 6 7 10
758 610 578 504 466 466 467 402 369 369 369 405 389 389 431 377 377 324 249 184 184 166 168 170 147 147 141 115 76 76 46 18 6 6 0 nan nan nan nan nan nan nan nan nan nan nan nan nan nan nan nan nan nan nan nan nan nan nan nan 9 9 21 18 17 20 20 25 26 27 27 24 23 19 19 17 17 17 17 20 20 20 20 19 17 15 15 13 9 5 5 4 5 7 7 7 7 7 8 5 5 5 8 10
621 557 525 524 450 450 448 383 379 379 380 389 434 434 415 364 364 314 263 195 195 156 156 156 133 133 109 85 52 52 28 10 3 3 nan nan nan nan nan nan nan nan nan nan nan nan nan nan nan nan nan nan nan nan nan nan nan nan nan 20 20 27 24 18 18 18 20 24 25 25 24 22 20 20 18 16 16 13 15 19 19 23 23 21 19 19 17 13 9 9 9 8 10 10 10 8 8 6 4 5 5 7 9
497 503 439 349 436 436 433 426 390 390 422 431 446 446 458 378 378 277 255 208 208 165 163 162 119 119 96 60 33 33 12 4 0 0 nan nan nan nan nan nan nan nan nan nan nan nan nan nan nan nan nan nan nan nan nan nan nan nan nan 35 35 33 31 24 20 20 20 22 23 23 22 22 20 20 18 16 16 12 12 16 16 20 24 25 24 24 22 18 14 14 12 12 12 12 10 8 8 6 6 6 6 6 8
355 421 185 232 391 391 416 439 433 433 465 506 521 521 503 392 392 266 199 176 176 153 171 147 124 124 68 39 19 19 8 2 nan nan nan nan nan nan nan nan nan nan nan nan nan nan nan nan nan nan nan nan nan nan nan nan nan nan 8 38 38 40 35 33 31 31 26 25 24 24 23 19 19 19 20 15 15 11 10 10 10 15 19 24 25 25 27 23 19 19 13 11 10 10 10 9 9 7 6 6 6 4 5
148 59 10 152 319 319 399 454 480 480 512 519 567 567 552 436 436 255 168 148 148 163 179 153 130 130 73 43 16 16 7 1 nan nan nan nan nan nan nan nan nan nan nan nan nan nan nan nan nan nan nan nan nan nan nan nan nan nan 28 37 37 44 39 40 39 39 35 37 31 31 28 23 19 19 20 20 20 14 9 7 7 11 12 17 23 23 29 23 16 16 13 11 10 10 10 11 11 10 6 4 4 3 3
nan nan nan 119 228 228 353 406 496 496 529 534 548 548 567 451 451 268 158 137 137 173 187 160 116 116 78 62 19 19 8 5 nan nan nan nan nan nan nan nan nan nan nan nan nan nan nan nan nan nan nan nan nan nan nan nan nan nan 35 40 40 41 43 42 42 42 40 43 42 42 42 34 25 25 20 23 23 21 15 12 12 7 8 10 16 16 19 22 15 15 14 11 10 10 10 10 10 10 7 6 6 3 2
nan nan nan 108 191 191 310 361 448 448 480 484 496 496 549 497 497 382 255 209 209 227 197 148 105 105 53 16 10 10 nan nan nan nan nan nan nan nan nan nan nan nan nan nan nan nan nan nan nan nan nan nan nan nan nan nan nan 1 32 40 40 42 48 52 57 57 46 45 49 49 52 43 37 37 22 22 22 22 22 19 19 11 9 8 10 10 12 14 11 11 12 11 10 10 9 8 8 8 6 5 5 4 2
nan nan 12 46 135 135 245 291 344 344 374 407 418 418 465 478 478 423 340 290 290 261 208 159 78 78 26 6 nan nan nan nan nan nan nan nan nan nan nan nan nan nan nan nan nan nan nan nan nan nan nan nan nan nan nan nan nan 8 29 39 39 46 52 55 57 57 62 51 51 51 50 48 39 39 25 22 22 26 25 23 23 19 12 10 8 8 8 10 10 10 9 10 7 7 7 7 7 7 7 6 6 4 3
nan nan 2 13 87 87 143 182 228 228 279 310 345 345 387 428 428 404 377 350 350 296 197 129 41 41 13 nan nan nan nan nan nan nan nan nan nan nan nan nan nan nan nan nan nan nan nan nan nan nan nan nan nan nan nan nan nan 34 30 37 37 47 58 64 60 60 64 66 63 63 54 46 37 37 26 25 25 27 27 25 25 24 19 15 10 10 10 8 8 8 9 10 7 7 7 6 6 8 8 9 9 8 6
nan 5 6 4 3 3 6 23 51 51 87 110 99 99 248 231 231 147 131 153 153 155 113 72 5 5 3 nan nan nan nan nan nan nan nan nan nan nan nan nan nan nan nan nan nan nan nan nan nan nan nan nan nan nan nan nan nan 19 34 36 36 39 48 46 55 55 53 74 78 78 67 57 59 59 44 33 33 29 29 25 25 20 16 12 9 9 8 8 10 10 12 10 10 10 13 11 11 12 8 10 10 11 11
4 7 4 4 0 0 nan 0 5 5 13 23 2 2 3 1 1 23 24 14 14 30 66 7 nan nan nan nan nan nan nan nan nan nan nan nan nan nan nan nan nan nan nan nan nan nan nan nan nan nan nan nan nan nan nan nan nan 7 14 25 25 34 38 40 50 50 62 84 83 83 71 71 75 75 57 38 38 32 30 26 26 21 17 13 7 7 8 9 11 11 13 13 15 15 15 15 15 13 10 9 9 11 13
4 5 5 2 nan nan nan nan nan nan nan 5 nan nan nan nan nan nan nan nan nan nan nan nan nan nan nan nan nan nan nan nan nan nan nan nan nan nan nan nan nan nan nan nan nan nan nan nan nan nan nan nan nan nan nan nan nan 2 4 12 12 21 29 38 38 38 41 61 93 93 115 96 84 84 59 47 47 35 30 26 26 23 18 13 10 10 8 10 12 12 17 14 14 14 16 17 17 12 9 7 7 10 11
2 2 2 0 nan nan nan nan nan nan nan nan nan nan nan nan nan nan nan nan nan nan nan nan nan nan nan nan nan nan nan nan nan nan nan nan nan nan nan nan nan nan nan nan nan nan nan nan nan nan nan nan nan nan nan nan nan nan 1 3 3 11 23 33 38 38 36 42 63 63 110 163 85 85 72 50 50 40 33 28 28 23 21 17 14 14 11 10 12 12 18 18 14 14 14 14 14 13 9 7 7 7 8
nan nan nan nan nan nan nan nan nan nan nan nan nan nan nan nan nan nan nan nan nan nan nan nan nan nan nan nan nan nan nan nan nan nan nan nan nan nan nan nan nan nan nan nan nan nan nan nan nan nan nan nan nan nan nan nan nan nan nan 0 0 3 13 23 32 32 29 29 38 38 64 145 83 83 69 56 56 36 31 29 29 26 23 21 18 18 19 18 15 15 16 22 17 17 13 14 14 14 8 5 5 4 5
nan nan nan nan nan nan nan nan nan nan nan nan nan nan nan nan nan nan nan nan nan nan nan nan nan nan nan nan nan nan nan nan nan nan nan nan nan nan nan nan nan nan nan nan nan nan nan nan nan nan nan nan nan nan nan nan nan nan nan nan nan nan 3 11 20 20 25 27 24 24 29 47 61 61 61 51 51 37 30 30 30 33 27 23 26 26 26 27 23 23 16 13 9 9 9 9 9 12 8 4 4 1 2
nan nan nan nan nan nan nan nan nan nan nan nan nan nan nan nan nan nan nan nan nan nan nan nan nan nan nan nan nan nan nan nan nan nan nan nan nan nan nan nan nan nan nan nan nan nan nan nan nan nan nan nan nan nan nan nan nan nan nan nan nan nan nan 0 5 5 12 21 24 24 19 22 42 42 59 57 57 45 26 29 29 33 31 29 30 30 30 30 29 29 29 25 22 22 8 5 5 9 5 2 2 0 0
nan nan nan nan nan nan nan nan nan nan nan nan nan nan nan nan nan nan nan nan nan nan nan nan nan nan nan nan nan nan nan nan nan nan nan nan nan nan nan nan nan nan nan nan nan nan nan nan nan nan nan nan nan nan nan nan nan nan nan nan nan nan nan nan nan nan 1 8 17 17 15 6 18 18 46 61 61 53 30 23 23 28 31 34 33 33 36 39 45 45 48 42 33 33 20 8 8 7 5 1 1 0 0
nan nan nan nan nan nan nan nan nan nan nan nan nan nan nan nan nan nan nan nan nan nan nan nan nan nan nan nan nan nan nan nan nan nan nan nan nan nan nan nan nan nan nan nan nan nan nan nan nan nan nan nan nan nan nan nan nan nan nan nan nan nan nan nan nan nan nan 1 7 7 11 8 7 7 24 48 48 50 37 24 24 25 29 38 40 40 47 49 55 55 62 62 54 54 34 24 24 14 10 5 5 2 1
nan nan nan nan nan nan nan nan nan nan nan nan nan nan nan nan nan nan nan nan nan nan nan nan nan nan nan nan nan nan nan nan nan nan nan nan nan nan nan nan nan nan nan nan nan nan nan nan nan nan nan nan nan nan nan nan nan nan nan nan nan nan nan nan nan nan nan nan 2 2 8 8 4 4 8 25 25 42 43 29 29 25 29 36 47 47 56 59 66 66 74 78 68 68 56 41 41 23 16 12 12 8 6
nan nan nan nan nan nan nan nan nan nan nan nan nan nan nan nan nan nan nan nan nan nan nan nan nan nan nan nan nan nan nan nan nan nan nan nan nan nan nan nan nan nan nan nan nan nan nan nan nan nan nan nan nan nan nan nan nan nan nan nan nan nan nan nan nan nan nan nan nan nan 3 7 6 6 3 9 9 26 35 34 34 28 33 36 49 49 57 63 70 70 79 96 81 81 73 56 56 30 26 21 21 22 19
nan nan nan nan nan nan nan nan nan nan nan nan nan nan nan nan nan nan nan nan nan nan nan nan nan nan nan nan nan nan nan nan nan nan nan nan nan nan nan nan nan nan nan nan nan nan nan nan nan nan nan nan nan nan nan nan nan nan nan nan nan nan nan nan nan nan nan nan nan nan 1 8 6 6 3 1 1 4 17 31 31 31 30 32 34 34 44 62 66 66 81 102 86 86 79 65 65 42 39 31 31 28 28
nan nan nan nan nan nan nan nan nan nan nan nan nan nan nan nan nan nan nan nan nan nan nan nan nan nan nan nan nan nan nan nan nan nan nan nan nan nan nan nan nan nan nan nan nan nan nan nan nan nan nan nan nan nan nan nan nan nan nan nan nan nan nan nan nan nan nan nan nan nan nan 4 9 9 4 1 1 1 4 9 9 12 15 10 11 11 28 50 62 62 84 102 90 90 81 70 70 55 49 43 43 43 41
nan nan nan nan nan nan nan nan nan nan nan nan nan nan nan nan nan nan nan nan nan nan nan nan nan nan nan nan nan nan nan nan nan nan nan nan nan nan nan nan nan nan nan nan nan nan nan nan nan nan nan nan nan nan nan nan nan nan nan nan nan nan nan nan nan nan nan nan nan nan nan 0 9 9 7 3 3 1 2 3 3 4 4 3 3 3 15 39 58 58 81 98 90 90 82 71 71 57 49 45 45 50 53
nan nan nan nan nan nan nan nan nan nan nan nan nan nan nan nan nan nan nan nan nan nan nan nan nan nan nan nan nan nan nan nan nan nan nan nan nan nan nan nan nan nan nan nan nan nan nan nan nan nan nan nan nan nan nan nan nan nan nan nan nan nan nan nan nan nan nan nan nan nan nan nan 4 4 9 6 6 3 2 2 2 2 2 1 0 0 9 35 50 50 57 76 89 89 74 63 63 55 54 47 47 53 51
nan nan nan nan nan nan nan nan nan nan nan nan nan nan nan nan nan nan nan nan nan nan nan nan nan nan nan nan nan nan nan nan nan nan nan nan nan nan nan nan nan nan nan nan nan nan nan nan nan nan nan nan nan nan nan nan nan nan nan nan nan nan nan nan nan nan nan nan nan nan nan nan nan nan 8 10 10 8 4 3 3 2 1 0 nan nan 2 31 42 42 39 46 63 63 61 58 58 59 55 55 55 52 44
nan nan nan nan nan nan nan nan nan nan nan nan nan nan nan nan nan nan nan nan nan nan nan nan nan nan nan nan nan nan nan nan nan nan nan nan nan nan nan nan nan nan nan nan nan nan nan nan nan nan nan nan nan nan nan nan nan nan nan nan nan nan nan nan nan nan nan nan nan nan nan nan nan nan 2 10 10 12 11 8 8 4 1 nan nan nan nan 19 32 32 27 28 49 49 54 55 55 55 60 58 58 45 23
nan nan nan nan nan nan nan nan nan nan nan nan nan nan nan nan nan nan nan nan nan nan nan nan nan nan nan nan nan nan nan nan nan nan nan nan nan nan nan nan nan nan nan nan nan nan nan nan nan nan nan nan nan nan nan nan nan nan nan nan nan nan nan nan nan nan nan nan nan nan nan nan nan nan nan 7 7 14 15 11 11 9 4 nan nan nan nan 5 19 19 21 25 38 38 47 52 52 55 57 45 45 26 11
nan nan nan nan nan nan nan nan nan nan nan nan nan nan nan nan nan nan nan nan nan nan nan nan nan nan nan nan nan nan nan nan nan nan nan nan nan nan nan nan nan nan nan nan nan nan nan nan nan nan nan nan nan nan nan nan nan nan nan nan nan nan nan nan nan nan nan nan nan nan nan nan nan nan nan 0 0 11 19 19 19 13 5 nan nan nan nan nan 9 9 17 21 28 28 28 34 34 44 46 21 21 12 6
nan nan nan nan nan nan nan nan nan nan nan nan nan nan nan nan nan nan nan nan nan nan nan nan nan nan nan nan nan nan nan nan nan nan nan nan nan nan nan nan nan nan nan nan nan nan nan nan nan nan nan nan nan nan nan nan nan nan nan nan nan nan nan nan nan nan nan nan nan nan nan nan nan nan nan nan nan 4 15 23 23 18 8 0 nan nan nan nan nan nan 1 7 9 9 8 7 7 8 13 12 12 9 6
nan nan nan nan nan nan nan nan nan nan nan nan nan nan nan nan nan nan nan nan nan nan nan nan nan nan nan nan nan nan nan nan nan nan nan nan nan nan nan nan nan nan nan nan nan nan nan nan nan nan nan nan nan nan nan nan nan nan nan nan nan nan nan nan nan nan nan nan nan nan nan nan nan nan nan nan nan 0 10 20 20 22 11 1 nan nan nan nan nan nan nan nan 0 0 nan nan nan nan 2 7 7 8 6
nan nan nan nan nan nan nan nan nan nan nan nan nan nan nan nan nan nan nan nan nan nan nan nan nan nan nan nan nan nan nan nan nan nan nan nan nan nan nan nan nan nan nan nan nan nan nan nan nan nan nan nan nan nan nan nan nan nan nan nan nan nan nan nan nan nan nan nan nan nan nan nan nan nan nan nan nan nan 4 14 14 26 17 2 nan nan nan nan nan nan nan nan nan nan nan nan nan nan 1 9 9 11 5
nan nan nan nan nan nan nan nan nan nan nan nan nan nan nan nan nan nan nan nan nan nan nan nan nan nan nan nan nan nan nan nan nan nan nan nan nan nan nan nan nan nan nan nan nan nan nan nan nan nan nan nan nan nan nan nan nan nan nan nan nan nan nan nan nan nan nan nan nan nan nan nan nan nan nan nan nan nan 3 13 13 36 29 5 nan nan nan nan nan nan nan nan nan nan nan nan nan nan 5 15 15 6 0
nan nan nan nan nan nan nan nan nan nan nan nan nan nan nan nan nan nan nan nan nan nan nan nan nan nan nan nan nan nan nan nan nan nan nan nan nan nan nan nan nan nan nan nan nan nan nan nan nan nan nan nan nan nan nan nan nan nan nan nan nan nan nan nan nan nan nan nan nan nan nan nan nan nan nan nan nan nan nan nan nan 7 18 13 nan nan nan nan nan nan nan nan nan nan nan nan nan nan 10 6 6 nan nan
nan nan nan nan nan nan nan nan nan nan nan nan nan nan nan nan nan nan nan nan nan nan nan nan nan nan nan nan nan nan nan nan nan nan nan nan nan nan nan nan nan nan nan nan nan nan nan nan nan nan nan nan nan nan nan nan nan nan nan nan nan nan nan nan nan nan nan nan nan nan nan nan nan nan nan nan nan nan nan nan nan nan 9 6 nan nan nan nan nan nan nan nan nan nan nan nan nan nan 2 0 0 nan nan
nan nan nan nan nan nan nan nan nan nan nan nan nan nan nan nan nan nan nan nan nan nan nan nan nan nan nan nan nan nan nan nan nan nan nan nan nan nan nan nan nan nan nan nan nan nan nan nan nan nan nan nan nan nan nan nan nan nan nan nan nan nan nan nan nan nan nan nan nan nan nan nan nan nan nan nan nan nan nan nan nan nan 3 3 nan nan nan nan nan nan nan nan nan nan nan nan nan nan 0 nan nan nan nan
nan nan nan nan nan nan nan nan nan nan nan nan nan nan nan nan nan nan nan nan nan nan nan nan nan nan nan nan nan nan nan nan nan nan nan nan nan nan nan nan nan nan nan nan nan nan nan nan nan nan nan nan nan nan nan nan nan nan nan nan nan nan nan nan nan nan nan nan nan nan nan nan nan nan nan nan nan nan nan nan nan nan nan 2 nan nan nan nan nan nan nan nan nan nan nan nan nan nan nan nan nan nan nan
nan nan nan nan nan nan nan nan nan nan nan nan nan nan nan nan nan nan nan nan nan nan nan nan nan nan nan nan nan nan nan nan nan nan nan nan nan nan nan nan nan nan nan nan nan nan nan nan nan nan nan nan nan nan nan nan nan nan nan nan nan nan nan nan nan nan nan nan nan nan nan nan nan nan nan nan nan nan nan nan nan nan nan nan 1 1 2 3 0 0 nan nan nan nan nan nan nan nan nan nan nan nan nan
nan nan nan nan nan nan nan nan nan nan nan nan nan nan nan nan nan nan nan nan nan nan nan nan nan nan nan nan nan nan nan nan nan nan nan nan nan nan nan nan nan nan nan nan nan nan nan nan nan nan nan nan nan nan nan nan nan nan nan nan nan nan nan nan nan nan nan nan nan nan nan nan nan nan nan nan nan nan nan nan nan nan nan nan nan nan 3 0 1 1 3 0 0 0 nan nan nan nan nan nan nan nan nan
nan nan nan nan nan nan nan nan nan nan nan nan nan nan nan nan nan nan nan nan nan nan nan nan nan nan nan nan nan nan nan nan nan nan nan nan nan nan nan nan nan nan nan nan nan nan nan nan nan nan nan nan nan nan nan nan nan nan nan nan nan nan nan nan nan nan nan nan nan nan nan nan nan nan nan nan nan nan nan nan nan nan nan nan nan nan nan nan 1 1 5 1 1 1 nan nan nan nan nan nan nan nan nan
nan nan nan nan nan nan nan nan nan nan nan nan nan nan nan nan nan nan nan nan nan nan nan nan nan nan nan nan nan nan nan nan nan nan nan nan nan nan nan nan nan nan nan nan nan nan nan nan nan nan nan nan nan nan nan nan nan nan nan nan nan nan nan nan nan nan nan nan nan nan nan nan nan nan nan nan nan nan nan nan nan nan nan nan nan nan nan nan nan nan 3 4 1 1 nan nan nan nan nan nan nan nan nan
nan nan nan nan nan nan nan nan nan nan nan nan nan nan nan nan nan nan nan nan nan nan nan nan nan nan nan nan nan nan nan nan nan nan nan nan nan nan nan nan nan nan nan nan nan nan nan nan nan nan nan nan nan nan nan nan nan nan nan nan nan nan nan nan nan nan nan nan nan nan nan nan nan nan nan nan nan nan nan nan nan nan nan nan nan nan nan nan nan nan 2 8 4 4 nan nan nan nan nan nan nan nan nan
nan nan nan nan nan nan 0 nan 0 0 nan nan nan nan nan nan nan nan nan nan nan nan nan nan nan nan nan nan nan nan nan nan nan nan nan nan nan nan nan nan nan nan nan nan nan nan nan nan nan nan nan nan nan nan nan nan nan nan nan nan nan nan nan nan nan nan nan nan nan nan nan nan nan nan nan nan nan nan nan nan nan nan nan nan nan nan nan nan nan nan nan 2 3 3 1 nan nan nan nan nan nan nan nan
nan nan 0 5 8 8 12 12 8 8 5 nan nan nan nan nan nan nan nan nan nan nan nan nan 3 3 nan nan nan nan nan nan nan nan nan nan nan nan nan nan nan nan nan nan nan nan nan nan nan nan nan nan nan nan nan nan nan nan nan nan nan nan nan nan nan nan nan nan nan nan nan nan nan nan nan nan nan nan nan nan nan nan nan nan nan nan nan nan nan nan nan nan nan nan 1 nan nan nan nan nan nan nan 2
nan nan 0 6 12 12 30 34 29 29 20 14 7 7 3 nan nan nan nan nan nan nan 2 6 18 18 38 22 9 9 nan nan nan nan nan nan nan nan nan nan nan nan nan nan nan nan nan 0 nan nan nan nan nan nan nan nan nan nan nan nan nan nan nan nan nan nan nan nan nan nan nan nan nan nan nan nan nan nan nan nan nan nan nan nan nan nan nan nan nan nan nan nan nan nan nan nan nan nan nan nan nan 1 7
nan nan 0 2 9 9 44 44 63 63 49 40 33 33 25 21 21 25 24 11 11 6 17 31 40 40 71 64 51 51 nan nan nan nan nan nan nan nan nan nan nan nan nan nan nan nan nan nan nan nan nan nan nan nan nan nan nan nan nan nan nan nan nan nan nan nan nan nan nan nan nan nan nan nan nan nan nan nan nan nan nan nan nan nan nan nan nan nan nan nan nan nan nan nan nan nan nan nan nan nan nan 1 9
nan nan 0 1 3 3 37 76 87 87 82 79 67 67 59 66 66 66 74 59 59 34 41 61 47 47 78 86 72 72 21 nan nan nan nan nan nan nan nan nan nan nan nan nan nan nan nan nan nan nan nan nan nan nan nan nan nan nan nan nan nan nan nan nan nan nan nan nan nan nan nan nan nan nan nan nan nan nan nan nan nan nan nan nan nan nan nan nan nan nan nan nan nan nan nan nan nan nan nan nan nan 1 10
nan 1 2 6 10 10 42 105 112 112 111 109 106 106 88 90 90 102 99 90 90 74 67 88 65 65 55 59 58 58 24 0 nan nan nan nan nan nan nan nan nan nan nan nan nan nan nan nan nan nan nan nan nan nan nan nan nan nan nan nan nan nan nan nan nan nan nan nan nan nan nan nan nan nan nan nan nan nan nan nan nan nan nan nan nan nan nan nan nan nan nan nan nan nan nan nan nan nan nan nan nan 1 7
26 24 15 28 31 31 63 135 147 147 144 141 140 140 118 117 117 127 132 108 108 105 89 88 81 81 43 37 31 31 16 11 nan nan nan nan nan nan nan nan nan nan nan nan nan nan nan nan nan nan nan nan nan nan nan nan nan nan nan nan nan nan nan nan nan nan nan nan nan nan nan nan nan nan nan nan nan nan nan nan nan nan nan nan nan nan nan nan nan nan nan nan nan nan nan nan nan nan nan nan nan 2 4
92 81 65 63 67 67 90 150 178 178 182 154 168 168 163 156 156 149 143 112 112 108 83 86 84 84 61 39 36 36 30 14 4 4 nan nan nan nan nan nan nan nan nan nan 12 12 25 1 nan nan nan nan nan nan nan nan nan nan nan nan nan nan nan nan nan nan nan nan nan nan nan nan nan nan nan nan nan nan nan nan nan nan nan nan nan nan nan nan nan nan nan nan nan nan nan nan nan nan nan 0 0 3 3
137 128 118 105 106 106 125 165 200 200 242 178 200 200 206 192 192 175 140 135 135 89 89 84 61 61 49 40 56 56 53 29 9 9 3 nan nan nan nan nan nan nan nan nan nan nan 8 31 2 2 nan nan nan nan nan nan nan nan nan nan nan nan nan nan nan nan nan nan nan nan nan nan nan nan nan nan nan nan nan nan nan nan nan nan nan nan nan nan nan nan nan nan nan nan nan nan nan nan nan 0 0 4 9
144 145 149 147 138 138 149 165 250 250 243 151 211 211 236 224 224 191 157 124 124 78 83 82 51 51 33 43 52 52 67 49 23 23 24 17 17 3 nan nan nan nan nan nan nan nan nan 2 11 11 27 nan nan nan nan nan nan nan nan nan nan nan nan nan nan nan nan nan nan nan nan nan nan nan nan nan nan nan nan nan nan nan nan nan nan nan nan nan nan nan nan nan nan nan nan nan nan nan nan nan nan 3 15